Flag for Japan Weather past 2 weeks in Kumamoto, Japan

Now
84 °F

Partly cloudy.


Feels Like: 90 °F
Forecast: 80 / 89 °F
Wind: 8 mph from Southeast

Location: Kumamoto Airport

Current Time: Jul 31, 2014 at 12:46:31 AM

Latest Report: Jul 30, 2014 at 9:00 PM


Visibility: N/A

Pressure: 29.86 "Hg

Humidity: 66%

Dew point: 72 °F

Location of KumamotoLocation

Historic Weather in Kumamoto — Graph

°F

Kumamoto temperature yesterday

Maximum temperature yesterday: 93 °F (at 3:00 PM)
Minimum temperature yesterday: 81 °F (at 7:00 AM)
Average temperature yesterday: 87 °F

Past Weeks' High & Low Weather Summary

 TemperatureHumidityPressure
High93 °F (Jul 29, 2:00 PM)100% (Jul 20, 8:00 PM)30.01 "Hg (Jul 20, 8:00 PM)
Low73 °F (Jul 16, 7:00 AM)40% (Jul 28, 4:00 PM)29.74 "Hg (Jul 28, 4:00 PM)
Average84 °F73%29.87 "Hg
* Reported Jul 15 9:00 PM — Jul 30 9:00 PM, Kumamoto, Weather by CustomWeather, © 2014

Note: Actual official high and low records may vary slightly from our data, if they occured in-between our weather recording intervals... More about our weather records

Advertising

Kumamoto weather history for previous 24 hours

 ConditionsComfort  
Time TempWeatherWind HumidityBarometerVisibility
9:00 PM
Jul 30
84 °FPartly cloudy.8 mph66%29.86 "HgN/A
8:01 PM86 °FPassing clouds.8 mph59%29.86 "HgN/A
8:00 PM86 °FPassing clouds.9 mph59%29.86 "HgN/A
7:00 PM84 °FBroken clouds.20 mph70%29.86 "HgN/A
6:00 PM84 °FPartly sunny.12 mph74%29.86 "HgN/A
5:00 PM86 °FThunderstorms. Broken clouds.6 mph70%29.83 "HgN/A
4:00 PM91 °FThunderstorms. Scattered clouds.10 mph56%29.83 "HgN/A
3:00 PM93 °FScattered clouds.10 mph56%29.83 "HgN/A
2:00 PM90 °FScattered clouds.16 mph63%29.83 "HgN/A
1:00 PM91 °FPassing clouds.16 mph59%29.83 "HgN/A
12:00 PM90 °FPassing clouds.13 mph63%29.86 "HgN/A
11:00 AM90 °FScattered clouds.8 mph55%29.86 "HgN/A
10:00 AM88 °FScattered clouds.18 mph62%29.89 "HgN/A
9:50 AM90 °FScattered clouds.12 mph63%29.89 "HgN/A
9:00 AM86 °FScattered clouds.10 mph66%29.89 "HgN/A
8:00 AM84 °FPassing clouds.3 mph70%29.89 "HgN/A
7:00 AM81 °FPassing clouds.12 mph79%29.89 "HgN/A
Weather by CustomWeather, © 2014

See weather overviewHow to use our weather pages